SAUDICOMSAT 2

Last updated on Fri Jun 19 2026 17:09:51 GMT+0000 (Coordinated Universal Time)

1 28370U 04025E 26170.26431403 .00000174 00000+0 56957-4 0 9997 2 28370 98.6640 182.5694 0054216 253.0594 106.4651 14.49982226160407
UTC large
Height (km)
Speed (km/s)
/
Latitude / Longitude
Inclination (degrees)
Orbital Period (minutes)
Azimuth
Elevation
Range (km)
Doppler Factor

Next 0 passes for location: London (51.5072 / 0.1276)

Sorry there are no passes over London.
SAUDICOMSAT 2